Tracking 33188 objects as of 10-Feb-2026
HD Live streaming from Space Station
objects crossing your sky now

GALAXY 1R

Track GALAXY 1R now!
GALAXY 1R is classified as:


NORAD ID: 23016
Int'l Code: 1994-013A
Perigee: 36,072.3 km
Apogee: 36,110.5 km
Inclination: 12.8 °
Period: 1,451.3 minutes
Semi major axis: 42462 km
RCS: 8.3555 m2 (large)
Launch date: February 19, 1994
Source: United States (US)
Launch site: AIR FORCE EASTERN TEST RANGE (AFETR)

24 C-band; North America, Caribbean.
Your satellite tracking list
Your tracking list is empty




NASA's NSSDC Master Catalog

Two Line Element Set (TLE):
1 23016U 94013A   26040.99816748  .00000078  00000-0  00000-0 0  9998
2 23016  12.7665  23.3679 0004507 284.7213 253.6336  0.99219337 44924
Source of the keplerian elements: AFSPC